SCP
0 0 0 0 0 0 0 0 0 0 0 0 0 0 0 0 0 0 0 0 0 0 0 0 0 0 0 0 0 0 0 0 0 0 0 0 0 0 0 0 0 0 0
0 0 0 0 0 0 0 0 0 0 0 0 0 0 0 0 0 0 0 0 0 0 0 0 0 0 0 0 0 0 0 0 0 0 0 0 0 0 0 0 0 0 0
0 0 0 0 0 0 0 0 0 0 0 0 0 0 0 0 0 0 0 0 0 0 0 0 0 0 0 0 0 0 0 0 0 0 0 0 0 0 0 0 0 0 0
0 0 0 0 0 0 0 0 0 0 0 0 0 0 0 0 0 0 0 0 0 0 0 0 0 0 0 0 0 0 0 0 0 0 0 0 0 0 0 0 0 0 0
0 0 0 0 0 0 0 0 0 -0 -0 -0 -0 -0 0 0 0 0 0 0 0 0 0 0 0 0 0 0 0 0 0 0 0 0 0 0 0 0 0 0 0 0 0
0 0 0 0 0 0 -0 -0 -0 -0 -0 -0 -0 -0 -0 -0 0 0 0 0 0 0 0 0 0 0 0 0 0 0 0 0 0 0 0 0 0 0 0 0 0 0 0
0 0 0 0 0 -0 -0 -0 -0 -0 -0 -0 -0 -0 -0 -0 0 0 0 0 0 0 0 0 0 0 0 0 0 0 0 0 0 0 0 0 0 0 0 0 0 0 0
0 0 0 0 0 0 0 0 -0 -0 -0 -0 -0 -0 -0 -0 0 0 0 0 0 0 0 0 0 0 0 0 0 0 0 0 0 0 0 0 0 0 0 0 0 0 0
0 0 0 0 0 0 0 0 -0 -0 -0 -0 -0 -0 -0 0 0 0 0 0 0 0 0 0 0 0 0 0 0 0 0 0 0 0 0 0 0 0 0 0 0 0 0
0 0 0 0 0 0 -0 -0 -0 -0 -0 -0 -0 -0 -0 -0 -0 0 0 0 0 0 0 0 0 0 0 0 0 0 0 0 0 0 0 0 0 0 0 0 0 0 0
0 0 0 0 0 0 0 -0 -0 0 0 0 -0 -0 -0 -0 -0 0 0 0 0 0 0 0 0 0 0 0 0 0 0 0 0 0 0 0 0 0 0 0 0 0 0
0 0 0 0 0 0 0 0 0 0 0 -0 -0 -0 -0 -0 -0 -0 0 0 0 0 0 0 0 0 0 0 0 0 0 0 0 0 0 0 0 0 0 0 0 0 0
0 0 0 0 0 0 0 0 0 0 0 0 0 0 0 -0 -0 0 0 0 0 0 0 0 0 0 0 0 0 0 0 0 0 0 0 0 0 0 0 0 0 0 0
0 0 0 0 0 0 0 0 0 0 0 0 0 0 0 0 -0 0 0 0 0 -0 -0 -0 -0 0 0 0 0 0 0 0 0 0 0 0 0 0 0 0 0 0 0
0 0 0 0 0 0 0 0 0 0 0 0 0 0 0 0 0 0 0 0 -0 -0 -0 -0 -0 -0 -0 0 0 0 0 0 0 0 0 0 0 0 0 0 0 0 0
0 0 0 0 0 0 0 0 0 0 0 0 0 0 0 0 0 0 0 0 0 0 -0 -0 -0 -0 -0 -0 0 0 0 0 0 0 0 0 0 0 0 0 0 0 0
0 0 0 0 0 0 0 0 0 0 0 0 0 0 0 0 0 0 0 0 0 0 -0 -0 -0 -0 -0 0 0 0 0 0 0 0 0 0 0 0 0 0 0 0 0
0 0 0 0 0 0 0 0 0 0 0 0 0 0 0 0 0 0 0 0 -0 0 -0 -0 -0 0 0 0 0 0 0 0 0 0 0 0 0 0 0 0 0 0 0
0 0 0 0 0 0 0 0 0 0 0 0 0 0 0 0 0 0 0 -0 -0 -0 -0 0 0 0 0 0 0 0 0 0 0 0 0 0 0 0 0 0 0 0 0
0 0 0 0 0 0 0 0 0 0 0 0 0 -0 -0 0 0 0 0 0 0 0 0 0 0 0 0 0 0 0 0 0 0 0 0 0 0 0 0 0 0 0 0
0 0 0 0 0 0 0 0 0 0 0 0 0 0 0 0 0 0 0 0 0 0 0 0 0 0 0 0 0 0 0 0 0 0 0 0 0 0 0 0 0 0 0
0 0 0 0 0 0 0 0 0 0 0 0 0 0 0 0 0 0 0 0 0 0 0 0 0 0 0 0 0 0 0 0 0 0 0 0 0 0 0 0 0 0 0
0 0 0 0 0 0 0 0 0 0 0 0 0 0 0 0 0 0 0 0 0 0 0 0 0 0 0 0 0 0 0 0 0 0 0 0 0 0 0 0 0 0 0
0 0 0 0 0 0 0 0 0 0 0 0 0 0 0 0 0 0 0 0 0 0 0 0 0 0 0 0 0 0 0 0 0 0 0 0 0 0 0 0 0 0 0
0 0 0 0 0 0 0 0 0 0 0 0 0 0 0 0 0 0 0 0 0 0 0 0 0 0 0 0 0 0 0 0 0 0 0 0 0 0 0 0 0 0 0
0 0 0 0 0 0 0 0 0 0 0 0 0 0 0 0 0 0 0 0 0 0 0 0 0 0 0 0 0 0 0 0 0 0 0 0 0 0 0 0 0 0 0
Wind_Speed_500mb
30 29 27 26 24 23 23 25 26 29 31 35 36 36 34 34 36 39 44 48 53 58 65 72 78 81 83 81 77 82 97 87 105 101 93 93 92 87 80 77 73 72 72
24 22 23 23 23 24 28 30 32 34 35 35 36 36 36 38 39 40 44 44 51 58 61 66 76 77 83 80 87 92 89 97 100 103 99 93 97 93 88 81 79 80 77
23 21 21 22 25 28 32 36 38 39 40 41 42 43 44 45 45 46 49 54 57 58 59 65 69 71 79 81 83 83 98 84 95 103 109 99 100 100 100 97 88 82 86
19 23 27 29 33 36 38 39 41 44 46 47 49 50 51 50 50 53 58 61 63 66 67 67 67 71 76 76 79 87 88 88 86 97 104 100 101 101 101 98 97 88 94
35 38 40 39 40 43 48 52 54 56 57 58 59 59 56 56 57 61 64 67 72 75 73 74 76 75 71 71 78 87 87 94 90 94 103 102 100 105 108 105 101 94 99
28 31 39 46 51 54 56 60 62 66 69 72 74 75 74 72 67 64 67 75 78 80 84 83 82 82 77 77 76 79 85 94 101 93 90 89 101 110 104 99 100 110 117
30 35 39 45 50 54 59 63 67 70 72 75 78 81 83 80 78 80 79 78 82 86 87 89 89 87 85 83 80 81 88 85 91 100 105 110 99 109 97 122 116 119 114
30 37 40 45 51 56 60 63 67 72 75 78 80 81 83 82 79 77 75 81 85 83 85 89 92 93 89 86 88 90 89 89 88 86 94 107 109 111 102 100 109 102 99
33 37 45 52 55 58 62 66 69 72 73 74 73 71 70 69 70 71 72 77 80 84 84 79 75 81 82 80 83 90 97 100 89 89 93 93 96 91 97 101 102 98 96
30 37 41 46 51 55 59 63 65 67 69 69 65 61 62 66 66 65 65 72 82 89 92 92 90 77 76 75 82 87 101 98 99 94 91 94 97 98 92 101 99 105 109
27 31 35 39 42 46 48 53 58 58 57 60 66 69 68 69 69 62 65 69 75 89 97 103 104 97 91 86 90 98 103 103 106 102 102 101 100 96 92 96 85 101 112
24 27 29 34 38 41 44 44 47 53 60 65 68 71 72 70 64 63 65 63 68 77 87 96 100 97 98 97 93 89 91 90 94 94 94 102 100 100 95 92 89 89 99
17 21 27 30 33 37 41 44 46 50 57 63 68 72 73 73 77 74 79 75 77 81 88 91 92 87 86 89 93 87 82 83 88 87 86 90 96 97 90 87 85 90 95
19 24 27 30 32 35 38 41 44 48 53 59 65 70 75 79 81 86 86 89 87 86 88 87 84 72 62 57 66 75 84 80 83 87 88 86 86 85 85 84 84 90 95
21 24 27 30 33 36 37 42 41 40 46 51 53 59 68 75 72 71 71 77 76 72 81 82 82 80 77 76 74 72 68 65 84 85 85 83 83 80 83 82 81 85 91
22 23 28 32 34 38 41 37 33 38 38 36 40 46 53 54 62 65 66 69 75 77 80 84 88 89 90 89 87 87 80 73 72 81 89 86 83 81 83 83 84 86 90
23 25 29 33 36 39 42 48 55 42 36 38 43 47 49 55 59 66 68 72 70 75 81 83 84 88 91 94 93 92 91 83 75 74 81 83 83 86 82 83 87 87 87
25 28 30 33 35 38 41 44 47 53 60 59 51 53 53 54 60 68 72 75 80 77 79 83 86 86 88 91 94 94 93 89 83 75 68 74 78 78 81 80 84 84 82
23 26 28 31 35 38 40 42 45 48 52 57 61 58 60 58 59 61 66 72 78 80 82 81 79 81 83 86 89 90 90 91 89 83 74 62 64 77 77 78 81 83 83
25 26 28 30 33 36 39 42 44 48 51 55 60 67 71 70 70 69 67 69 72 73 76 78 80 79 78 81 85 88 90 90 90 88 83 75 64 57 74 75 74 78 81
24 25 26 29 33 37 41 43 46 49 52 54 56 59 61 66 69 68 70 68 70 71 73 74 76 78 78 79 81 83 84 84 88 87 90 84 74 65 54 66 67 76 79
25 28 30 32 35 38 41 43 46 49 52 57 58 56 59 62 66 68 68 69 69 70 71 73 73 73 76 78 79 80 81 79 83 88 92 94 82 68 58 45 58 68 71
27 29 32 35 37 39 40 44 47 50 53 55 59 61 61 62 63 65 67 67 68 69 70 71 73 73 71 73 72 73 74 76 73 79 92 94 83 70 59 52 54 57 65
31 32 34 36 38 41 44 46 48 50 54 56 59 60 63 65 65 65 65 66 67 66 66 66 67 69 71 73 73 71 69 63 58 68 84 82 75 69 58 50 48 55 59
32 34 37 40 42 44 46 48 51 53 56 59 62 65 66 67 68 67 66 65 65 67 66 64 63 66 70 72 71 71 67 61 49 62 79 73 67 59 55 48 46 49 54
33 36 39 41 44 47 49 52 53 55 58 60 62 65 68 70 71 72 70 68 66 64 63 63 63 63 67 71 70 67 67 64 54 59 79 69 65 60 52 45 39 40 45
Wind_Direction_500mb
68 62 57 48 40 31 21 15 6 1 354 350 346 342 332 325 323 311 299 291 286 288 288 286 285 283 283 284 284 285 277 276 265 273 271 281 278 277 271 270 265 262 257
44 40 34 23 16 5 357 353 348 344 340 336 332 328 324 322 321 314 306 303 294 286 282 282 286 287 285 282 275 278 279 276 271 276 276 270 274 280 273 263 260 257 253
17 9 7 1 354 354 350 346 343 341 338 336 331 329 326 324 320 314 308 304 301 296 292 284 279 279 280 282 282 272 276 270 273 272 274 275 271 271 273 272 254 253 253
3 357 351 351 355 354 352 349 346 341 337 336 334 331 326 323 320 314 308 303 298 295 295 294 290 284 279 279 280 280 278 275 263 275 269 270 270 266 264 263 263 260 253
343 350 359 357 353 351 347 344 342 341 340 337 334 331 327 323 320 313 308 304 301 297 294 292 291 290 287 284 276 272 273 274 266 270 266 267 268 260 261 267 266 263 258
356 352 350 351 352 350 347 346 344 342 340 339 337 334 330 328 324 319 314 307 303 301 298 295 293 290 287 286 284 279 269 268 272 274 271 262 270 269 265 265 266 254 250
351 355 356 355 354 354 352 349 346 345 343 341 338 336 335 333 331 325 320 312 309 305 302 300 296 295 296 290 284 279 276 270 264 265 266 267 276 272 277 265 261 259 255
2 3 359 1 0 358 355 352 350 349 347 345 342 339 335 334 330 325 320 315 311 311 309 306 305 303 301 303 297 287 279 274 269 276 271 265 267 273 275 275 273 270 257
13 10 10 8 6 2 359 358 357 356 354 353 347 341 335 333 330 328 327 322 317 310 305 303 306 305 306 308 306 299 286 283 281 267 262 268 273 273 278 274 263 253 249
18 19 16 12 8 8 6 5 3 2 1 356 353 352 354 356 355 348 344 333 324 318 312 310 308 306 304 304 302 301 299 295 295 290 279 271 265 261 263 268 264 256 248
28 24 20 16 12 12 9 6 3 358 355 354 358 2 2 1 358 352 348 342 333 324 318 315 311 309 303 298 292 293 293 298 299 295 285 281 271 268 262 261 266 259 254
27 21 16 11 7 2 359 358 354 354 356 360 357 356 356 357 357 353 348 346 338 328 321 318 314 310 307 302 298 295 296 297 294 291 289 282 278 271 265 262 267 266 260
14 8 7 2 354 351 352 355 355 356 355 356 353 350 348 352 355 350 349 347 343 335 332 325 322 319 316 311 307 306 304 298 295 292 287 283 283 279 277 271 265 263 251
356 355 351 347 348 353 357 358 360 358 357 353 349 341 346 349 353 349 347 343 342 342 338 336 330 319 316 318 314 308 304 305 301 296 290 286 290 282 277 271 267 261 246
345 342 344 347 347 349 356 359 0 3 360 349 341 341 343 345 349 343 342 341 341 342 343 346 347 345 338 331 321 315 314 319 296 298 297 288 291 278 275 271 265 258 247
337 338 341 342 344 345 345 350 2 2 357 350 345 345 340 341 339 340 341 343 344 347 350 356 357 356 353 349 344 336 327 321 309 298 289 292 291 280 272 270 264 254 248
334 340 341 341 342 343 345 346 346 353 355 353 348 349 349 345 346 344 343 346 344 347 356 359 358 357 355 353 350 346 341 337 326 316 293 287 289 287 274 262 261 257 249
335 339 339 339 341 342 344 346 345 344 344 348 354 353 353 349 352 345 344 342 347 353 355 355 356 354 354 351 350 349 346 344 342 332 325 292 288 286 275 262 253 251 249
330 332 335 338 339 341 341 341 341 342 342 343 344 347 348 353 352 344 344 349 352 353 352 352 351 350 350 349 348 348 348 348 347 341 334 330 307 285 279 270 260 258 253
329 329 333 333 335 336 336 338 339 340 342 343 345 347 345 347 346 347 349 348 348 349 348 347 347 347 345 346 346 346 346 348 349 347 341 335 328 323 285 278 264 254 251
323 325 327 330 333 334 336 337 338 339 340 342 345 345 344 340 340 343 344 345 345 345 344 344 343 343 344 343 342 343 344 344 347 348 346 341 332 323 325 285 283 263 255
319 322 325 329 331 332 331 333 336 337 338 339 341 342 338 336 337 338 340 340 341 341 342 342 342 342 342 342 341 339 339 341 344 346 347 342 337 327 317 305 295 274 253
316 319 322 324 325 326 330 332 333 335 337 338 337 337 337 337 336 335 335 335 336 337 338 340 340 341 342 342 342 340 337 338 340 346 346 337 336 331 320 310 297 278 257
311 314 317 320 323 326 328 330 333 334 335 335 335 336 336 336 336 335 334 333 333 334 336 337 338 339 341 342 341 339 338 334 338 347 342 334 334 335 326 314 302 276 258
308 313 317 321 323 325 327 330 332 333 334 334 334 334 334 334 334 334 333 332 331 332 333 336 336 338 339 339 339 340 339 336 332 350 339 337 336 337 335 320 304 284 260
310 313 317 319 322 323 326 328 329 331 332 332 332 333 332 332 333 332 332 331 331 331 331 332 334 337 337 337 338 339 343 340 338 351 337 337 339 339 340 334 313 279 258
Wind_Speed_850mb
30 29 27 26 24 23 23 25 26 29 31 35 36 36 34 34 36 39 44 48 53 58 65 72 78 81 83 81 77 82 97 87 105 101 93 93 92 87 80 77 73 72 72
24 22 23 23 23 24 28 30 32 34 35 35 36 36 36 38 39 40 44 44 51 58 61 66 76 77 83 80 87 92 89 97 100 103 99 93 97 93 88 81 79 80 77
23 21 21 22 25 28 32 36 38 39 40 41 42 43 44 45 45 46 49 54 57 58 59 65 69 71 79 81 83 83 98 84 95 103 109 99 100 100 100 97 88 82 86
19 23 27 29 33 36 38 39 41 44 46 47 49 50 51 50 50 53 58 61 63 66 67 67 67 71 76 76 79 87 88 88 86 97 104 100 101 101 101 98 97 88 94
35 38 40 39 40 43 48 52 54 56 57 58 59 59 56 56 57 61 64 67 72 75 73 74 76 75 71 71 78 87 87 94 90 94 103 102 100 105 108 105 101 94 99
28 31 39 46 51 54 56 60 62 66 69 72 74 75 74 72 67 64 67 75 78 80 84 83 82 82 77 77 76 79 85 94 101 93 90 89 101 110 104 99 100 110 117
30 35 39 45 50 54 59 63 67 70 72 75 78 81 83 80 78 80 79 78 82 86 87 89 89 87 85 83 80 81 88 85 91 100 105 110 99 109 97 122 116 119 114
30 37 40 45 51 56 60 63 67 72 75 78 80 81 83 82 79 77 75 81 85 83 85 89 92 93 89 86 88 90 89 89 88 86 94 107 109 111 102 100 109 102 99
33 37 45 52 55 58 62 66 69 72 73 74 73 71 70 69 70 71 72 77 80 84 84 79 75 81 82 80 83 90 97 100 89 89 93 93 96 91 97 101 102 98 96
30 37 41 46 51 55 59 63 65 67 69 69 65 61 62 66 66 65 65 72 82 89 92 92 90 77 76 75 82 87 101 98 99 94 91 94 97 98 92 101 99 105 109
27 31 35 39 42 46 48 53 58 58 57 60 66 69 68 69 69 62 65 69 75 89 97 103 104 97 91 86 90 98 103 103 106 102 102 101 100 96 92 96 85 101 112
24 27 29 34 38 41 44 44 47 53 60 65 68 71 72 70 64 63 65 63 68 77 87 96 100 97 98 97 93 89 91 90 94 94 94 102 100 100 95 92 89 89 99
17 21 27 30 33 37 41 44 46 50 57 63 68 72 73 73 77 74 79 75 77 81 88 91 92 87 86 89 93 87 82 83 88 87 86 90 96 97 90 87 85 90 95
19 24 27 30 32 35 38 41 44 48 53 59 65 70 75 79 81 86 86 89 87 86 88 87 84 72 62 57 66 75 84 80 83 87 88 86 86 85 85 84 84 90 95
21 24 27 30 33 36 37 42 41 40 46 51 53 59 68 75 72 71 71 77 76 72 81 82 82 80 77 76 74 72 68 65 84 85 85 83 83 80 83 82 81 85 91
22 23 28 32 34 38 41 37 33 38 38 36 40 46 53 54 62 65 66 69 75 77 80 84 88 89 90 89 87 87 80 73 72 81 89 86 83 81 83 83 84 86 90
23 25 29 33 36 39 42 48 55 42 36 38 43 47 49 55 59 66 68 72 70 75 81 83 84 88 91 94 93 92 91 83 75 74 81 83 83 86 82 83 87 87 87
25 28 30 33 35 38 41 44 47 53 60 59 51 53 53 54 60 68 72 75 80 77 79 83 86 86 88 91 94 94 93 89 83 75 68 74 78 78 81 80 84 84 82
23 26 28 31 35 38 40 42 45 48 52 57 61 58 60 58 59 61 66 72 78 80 82 81 79 81 83 86 89 90 90 91 89 83 74 62 64 77 77 78 81 83 83
25 26 28 30 33 36 39 42 44 48 51 55 60 67 71 70 70 69 67 69 72 73 76 78 80 79 78 81 85 88 90 90 90 88 83 75 64 57 74 75 74 78 81
24 25 26 29 33 37 41 43 46 49 52 54 56 59 61 66 69 68 70 68 70 71 73 74 76 78 78 79 81 83 84 84 88 87 90 84 74 65 54 66 67 76 79
25 28 30 32 35 38 41 43 46 49 52 57 58 56 59 62 66 68 68 69 69 70 71 73 73 73 76 78 79 80 81 79 83 88 92 94 82 68 58 45 58 68 71
27 29 32 35 37 39 40 44 47 50 53 55 59 61 61 62 63 65 67 67 68 69 70 71 73 73 71 73 72 73 74 76 73 79 92 94 83 70 59 52 54 57 65
31 32 34 36 38 41 44 46 48 50 54 56 59 60 63 65 65 65 65 66 67 66 66 66 67 69 71 73 73 71 69 63 58 68 84 82 75 69 58 50 48 55 59
32 34 37 40 42 44 46 48 51 53 56 59 62 65 66 67 68 67 66 65 65 67 66 64 63 66 70 72 71 71 67 61 49 62 79 73 67 59 55 48 46 49 54
33 36 39 41 44 47 49 52 53 55 58 60 62 65 68 70 71 72 70 68 66 64 63 63 63 63 67 71 70 67 67 64 54 59 79 69 65 60 52 45 39 40 45
Wind_Direction_850mb
68 62 57 48 40 31 21 15 6 1 354 350 346 342 332 325 323 311 299 291 286 288 288 286 285 283 283 284 284 285 277 276 265 273 271 281 278 277 271 270 265 262 257
44 40 34 23 16 5 357 353 348 344 340 336 332 328 324 322 321 314 306 303 294 286 282 282 286 287 285 282 275 278 279 276 271 276 276 270 274 280 273 263 260 257 253
17 9 7 1 354 354 350 346 343 341 338 336 331 329 326 324 320 314 308 304 301 296 292 284 279 279 280 282 282 272 276 270 273 272 274 275 271 271 273 272 254 253 253
3 357 351 351 355 354 352 349 346 341 337 336 334 331 326 323 320 314 308 303 298 295 295 294 290 284 279 279 280 280 278 275 263 275 269 270 270 266 264 263 263 260 253
343 350 359 357 353 351 347 344 342 341 340 337 334 331 327 323 320 313 308 304 301 297 294 292 291 290 287 284 276 272 273 274 266 270 266 267 268 260 261 267 266 263 258
356 352 350 351 352 350 347 346 344 342 340 339 337 334 330 328 324 319 314 307 303 301 298 295 293 290 287 286 284 279 269 268 272 274 271 262 270 269 265 265 266 254 250
351 355 356 355 354 354 352 349 346 345 343 341 338 336 335 333 331 325 320 312 309 305 302 300 296 295 296 290 284 279 276 270 264 265 266 267 276 272 277 265 261 259 255
2 3 359 1 0 358 355 352 350 349 347 345 342 339 335 334 330 325 320 315 311 311 309 306 305 303 301 303 297 287 279 274 269 276 271 265 267 273 275 275 273 270 257
13 10 10 8 6 2 359 358 357 356 354 353 347 341 335 333 330 328 327 322 317 310 305 303 306 305 306 308 306 299 286 283 281 267 262 268 273 273 278 274 263 253 249
18 19 16 12 8 8 6 5 3 2 1 356 353 352 354 356 355 348 344 333 324 318 312 310 308 306 304 304 302 301 299 295 295 290 279 271 265 261 263 268 264 256 248
28 24 20 16 12 12 9 6 3 358 355 354 358 2 2 1 358 352 348 342 333 324 318 315 311 309 303 298 292 293 293 298 299 295 285 281 271 268 262 261 266 259 254
27 21 16 11 7 2 359 358 354 354 356 360 357 356 356 357 357 353 348 346 338 328 321 318 314 310 307 302 298 295 296 297 294 291 289 282 278 271 265 262 267 266 260
14 8 7 2 354 351 352 355 355 356 355 356 353 350 348 352 355 350 349 347 343 335 332 325 322 319 316 311 307 306 304 298 295 292 287 283 283 279 277 271 265 263 251
356 355 351 347 348 353 357 358 360 358 357 353 349 341 346 349 353 349 347 343 342 342 338 336 330 319 316 318 314 308 304 305 301 296 290 286 290 282 277 271 267 261 246
345 342 344 347 347 349 356 359 0 3 360 349 341 341 343 345 349 343 342 341 341 342 343 346 347 345 338 331 321 315 314 319 296 298 297 288 291 278 275 271 265 258 247
337 338 341 342 344 345 345 350 2 2 357 350 345 345 340 341 339 340 341 343 344 347 350 356 357 356 353 349 344 336 327 321 309 298 289 292 291 280 272 270 264 254 248
334 340 341 341 342 343 345 346 346 353 355 353 348 349 349 345 346 344 343 346 344 347 356 359 358 357 355 353 350 346 341 337 326 316 293 287 289 287 274 262 261 257 249
335 339 339 339 341 342 344 346 345 344 344 348 354 353 353 349 352 345 344 342 347 353 355 355 356 354 354 351 350 349 346 344 342 332 325 292 288 286 275 262 253 251 249
330 332 335 338 339 341 341 341 341 342 342 343 344 347 348 353 352 344 344 349 352 353 352 352 351 350 350 349 348 348 348 348 347 341 334 330 307 285 279 270 260 258 253
329 329 333 333 335 336 336 338 339 340 342 343 345 347 345 347 346 347 349 348 348 349 348 347 347 347 345 346 346 346 346 348 349 347 341 335 328 323 285 278 264 254 251
323 325 327 330 333 334 336 337 338 339 340 342 345 345 344 340 340 343 344 345 345 345 344 344 343 343 344 343 342 343 344 344 347 348 346 341 332 323 325 285 283 263 255
319 322 325 329 331 332 331 333 336 337 338 339 341 342 338 336 337 338 340 340 341 341 342 342 342 342 342 342 341 339 339 341 344 346 347 342 337 327 317 305 295 274 253
316 319 322 324 325 326 330 332 333 335 337 338 337 337 337 337 336 335 335 335 336 337 338 340 340 341 342 342 342 340 337 338 340 346 346 337 336 331 320 310 297 278 257
311 314 317 320 323 326 328 330 333 334 335 335 335 336 336 336 336 335 334 333 333 334 336 337 338 339 341 342 341 339 338 334 338 347 342 334 334 335 326 314 302 276 258
308 313 317 321 323 325 327 330 332 333 334 334 334 334 334 334 334 334 333 332 331 332 333 336 336 338 339 339 339 340 339 336 332 350 339 337 336 337 335 320 304 284 260
310 313 317 319 322 323 326 328 329 331 332 332 332 333 332 332 333 332 332 331 331 331 331 332 334 337 337 337 338 339 343 340 338 351 337 337 339 339 340 334 313 279 258